Stations météo

Publicité
Mahdia, Tunisie (60742): Température de l'air & dewpoint: 18.02.2019 00:00:00 - 24.02.2019 00:00:00 (CET)Mahdia, Tunisie (60742): Vitesse du vent: 18.02.2019 00:00:00 - 24.02.2019 00:00:00 (CET)Mahdia, Tunisie (60742): Direction du vent: 18.02.2019 00:00:00 - 24.02.2019 00:00:00 (CET)Mahdia, Tunisie (60742): reduced air pressure: 18.02.2019 00:00:00 - 24.02.2019 00:00:00 (CET)Mahdia, Tunisie (60742): visibility: 18.02.2019 00:00:00 - 24.02.2019 00:00:00 (CET)
Date & Time tt [°C] td [°C] ff [km/h] ff [knt] dd ppp [hPa] vv [km]
24.02.2019 00:00:00 - - - - - - -
23.02.2019 23:00:00 - - - - - - -
23.02.2019 22:00:00 9,7 0,6 24 13 N 1017,9 -
23.02.2019 21:00:00 - - - - - - -
23.02.2019 20:00:00 - - - - - - -
23.02.2019 19:00:00 - - - - - - -
23.02.2019 18:00:00 - - - - - - -
23.02.2019 17:00:00 - - - - - - -
23.02.2019 16:00:00 11,3 6,4 21 11 N 1016,1 -
23.02.2019 15:00:00 - - - - - - -
23.02.2019 14:00:00 - - - - - - -
23.02.2019 13:00:00 15,3 7,6 28 15 NW 1017,2 -
23.02.2019 12:00:00 - - - - - - -
23.02.2019 11:00:00 - - - - - - -
23.02.2019 10:00:00 13,1 9,4 26 14 NW 1019,9 8
23.02.2019 09:00:00 - - - - - - -
23.02.2019 08:00:00 - - - - - - -
23.02.2019 07:00:00 13,0 9,1 11 6 NW 1020,5 8
23.02.2019 06:00:00 - - - - - - -
23.02.2019 05:00:00 - - - - - - -
23.02.2019 04:00:00 12,7 9,5 15 8 NW 1021,2 -
23.02.2019 03:00:00 - - - - - - -
23.02.2019 02:00:00 - - - - - - -
23.02.2019 01:00:00 12,2 9,2 11 6 WNW 1022,9 -
23.02.2019 00:00:00 - - - - - - -
22.02.2019 23:00:00 - - - - - - -
22.02.2019 22:00:00 13,7 7,7 9 5 WNW 1024,3 -
22.02.2019 21:00:00 - - - - - - -
22.02.2019 20:00:00 - - - - - - -
22.02.2019 19:00:00 14,3 9,1 9 5 NW 1024,1 -
22.02.2019 18:00:00 - - - - - - -
22.02.2019 17:00:00 - - - - - - -
22.02.2019 16:00:00 15,4 9,1 5 3 N 1024,3 -
22.02.2019 15:00:00 - - - - - - -
22.02.2019 14:00:00 - - - - - - -
22.02.2019 13:00:00 - - - - - - -
22.02.2019 12:00:00 - - - - - - -
22.02.2019 11:00:00 - - - - - - -
22.02.2019 10:00:00 13,1 8,0 9 5 WNW 1027,7 10
22.02.2019 09:00:00 - - - - - - -
22.02.2019 08:00:00 - - - - - - -
22.02.2019 07:00:00 10,4 6,9 5 3 W 1029,0 8
22.02.2019 06:00:00 - - - - - - -
22.02.2019 05:00:00 - - - - - - -
22.02.2019 04:00:00 12,9 6,9 8 4 NW 1028,9 -
22.02.2019 03:00:00 - - - - - - -
22.02.2019 02:00:00 - - - - - - -
22.02.2019 01:00:00 12,9 7,6 9 5 NW 1029,8 -
22.02.2019 00:00:00 - - - - - - -
21.02.2019 23:00:00 - - - - - - -
21.02.2019 22:00:00 13,5 6,4 8 4 NNE 1029,9 -
21.02.2019 21:00:00 - - - - - - -
21.02.2019 20:00:00 - - - - - - -
21.02.2019 19:00:00 13,6 7,2 11 6 NNE 1028,9 10
21.02.2019 18:00:00 - - - - - - -
21.02.2019 17:00:00 - - - - - - -
21.02.2019 16:00:00 15,3 8,1 8 4 NNE 1028,0 10
21.02.2019 15:00:00 - - - - - - -
21.02.2019 14:00:00 - - - - - - -
21.02.2019 13:00:00 15,8 9,0 11 6 NNE 1028,7 10
21.02.2019 12:00:00 - - - - - - -
21.02.2019 11:00:00 - - - - - - -
21.02.2019 10:00:00 14,7 10,1 5 3 NNW 1028,7 10
21.02.2019 09:00:00 - - - - - - -
21.02.2019 08:00:00 - - - - - - -
21.02.2019 07:00:00 11,7 9,6 4 2 WNW 1027,4 6
21.02.2019 06:00:00 - - - - - - -
21.02.2019 05:00:00 - - - - - - -
21.02.2019 04:00:00 12,1 9,3 4 2 WNW 1026,2 -
21.02.2019 03:00:00 - - - - - - -
21.02.2019 02:00:00 - - - - - - -
21.02.2019 01:00:00 13,1 9,2 2 1 NE 1026,5 -
21.02.2019 00:00:00 - - - - - - -
20.02.2019 23:00:00 - - - - - - -
20.02.2019 22:00:00 14,2 10,2 9 5 ENE 1025,6 -
20.02.2019 21:00:00 - - - - - - -
20.02.2019 20:00:00 - - - - - - -
20.02.2019 19:00:00 14,5 10,1 11 6 ENE 1024,6 10
20.02.2019 18:00:00 - - - - - - -
20.02.2019 17:00:00 - - - - - - -
20.02.2019 16:00:00 - - - - - - -
20.02.2019 15:00:00 - - - - - - -
20.02.2019 14:00:00 - - - - - - -
20.02.2019 13:00:00 15,2 11,8 8 4 ENE 1023,7 8
20.02.2019 12:00:00 - - - - - - -
20.02.2019 11:00:00 - - - - - - -
20.02.2019 10:00:00 14,3 12,5 4 2 NE 1024,3 6
20.02.2019 09:00:00 - - - - - - -
20.02.2019 08:00:00 - - - - - - -
20.02.2019 07:00:00 11,6 10,5 4 2 NW 1022,4 2,0
20.02.2019 06:00:00 - - - - - - -
20.02.2019 05:00:00 - - - - - - -
20.02.2019 04:00:00 11,8 9,9 0 0 N 1022,7 -
20.02.2019 03:00:00 - - - - - - -
20.02.2019 02:00:00 - - - - - - -
20.02.2019 01:00:00 13,7 11,6 4 2 ESE 1022,7 -
20.02.2019 00:00:00 - - - - - - -
19.02.2019 23:00:00 - - - - - - -
19.02.2019 22:00:00 14,0 11,2 4 2 SE 1023,1 -
19.02.2019 21:00:00 - - - - - - -
19.02.2019 20:00:00 - - - - - - -
19.02.2019 19:00:00 14,3 10,7 11 6 ESE 1022,3 10
19.02.2019 18:00:00 - - - - - - -
19.02.2019 17:00:00 - - - - - - -
19.02.2019 16:00:00 15,7 10,5 11 6 E 1021,8 10
19.02.2019 15:00:00 - - - - - - -
19.02.2019 14:00:00 - - - - - - -
19.02.2019 13:00:00 17,2 11,5 4 2 SE 1023,0 10
19.02.2019 12:00:00 - - - - - - -
19.02.2019 11:00:00 - - - - - - -
19.02.2019 10:00:00 11,5 9,2 4 2 SW 1024,3 10
19.02.2019 09:00:00 - - - - - - -
19.02.2019 08:00:00 - - - - - - -
19.02.2019 07:00:00 9,0 7,1 2 1 WSW 1024,2 -
19.02.2019 06:00:00 - - - - - - -
19.02.2019 05:00:00 - - - - - - -
19.02.2019 04:00:00 11,1 9,0 4 2 SW 1023,2 -
19.02.2019 03:00:00 - - - - - - -
19.02.2019 02:00:00 - - - - - - -
19.02.2019 01:00:00 13,0 8,9 9 5 S 1024,5 -
19.02.2019 00:00:00 - - - - - - -
18.02.2019 23:00:00 - - - - - - -
18.02.2019 22:00:00 13,4 9,1 8 4 S 1025,2 -
18.02.2019 21:00:00 - - - - - - -
18.02.2019 20:00:00 - - - - - - -
18.02.2019 19:00:00 13,5 8,6 15 8 S 1024,5 10
18.02.2019 18:00:00 - - - - - - -
18.02.2019 17:00:00 - - - - - - -
18.02.2019 16:00:00 14,4 9,2 11 6 S 1024,4 10
18.02.2019 15:00:00 - - - - - - -
18.02.2019 14:00:00 - - - - - - -
18.02.2019 13:00:00 14,7 7,5 8 4 S 1026,5 8
18.02.2019 12:00:00 - - - - - - -
18.02.2019 11:00:00 - - - - - - -
18.02.2019 10:00:00 11,5 8,7 4 2 SW 1027,8 10
18.02.2019 09:00:00 - - - - - - -
18.02.2019 08:00:00 - - - - - - -
18.02.2019 07:00:00 8,6 6,2 2 1 SW 1028,2 6
18.02.2019 06:00:00 - - - - - - -
18.02.2019 05:00:00 - - - - - - -
18.02.2019 04:00:00 9,8 6,7 4 2 SW 1028,3 -
18.02.2019 03:00:00 - - - - - - -
18.02.2019 02:00:00 - - - - - - -
18.02.2019 01:00:00 11,2 7,9 11 6 SSW 1028,7 -
18.02.2019 00:00:00 - - - - - - -

tt = Température de l'air
td = dewpoint
ff = Vitesse du vent
dd = Direction du vent
ppp = reduced air pressure
vv = visibility

stations d'obs. à proximité